Tracking 19192 objects as of 19-Jun-2018
HD Live streaming from Space Station
objects crossing your sky now

FENGYUN 1C DEB

Track FENGYUN 1C DEB now!
10-day predictions


NORAD ID: 31213
Int'l Code: 1999-025BKT
Perigee: 774.0 km
Apogee: 820.2 km
Inclination: 99.5 °
Period: 100.7 minutes
Semi major axis: 7168 km
RCS: 0.0047 m2 (small)
Launch date: May 10, 1999
Source: People's Republic of China (PRC)
Launch site: Taiyaun Space Center, China (TSC)

Note: This is SATELLITE DEBRIS
aabbcc
Your satellite tracking list
Your tracking list is empty




NASA's NSSDC Master Catalog

Two Line Element Set (TLE):
1 31213U 99025BKT 18168.74952389 +.00001536 +00000-0 +60536-3 0  9994
2 31213 099.4621 098.2481 0032233 047.0635 313.3241 14.30538436579211
Source of the keplerian elements: AFSPC